Location: Bh?mavarapp?du
(16.7041°N, 80.6518°E)
Time: 07:25:19
(UTC+00:00)

Cosmos 1025 Rocket - Pass Details

Date: 21 April 2021
Orbit: 594 x 617 km, 82.5° (Epoch: 06 May)

Event Time Altitude Azimuth Distance (km) Brightness Sun altitude
Rises 23:17:14 0° 186° (S) 2,821 6.2 -14.8°
Reaches altitude 10° 23:19:26 10° 188° (S) 1,920 5.3 -14.3°
Maximum altitude 23:23:40 79° 274° (W) 607 2.9 -13.3°
Drops below altitude 10° 23:27:55 10° 2° (N) 1,925 5.8 -12.3°
Sets 23:30:08 0° 3° (N) 2,829 6.7 -11.8°
